Change the Weather History Date:

Tuesday, August 6, 2013

  Actual Average (KPOE) Record (KPOE)
Temperature  
Mean Temperature 88 °F -  
Max Temperature 100 °F 90 °F 99 °F (2011)
Min Temperature 77 °F 71 °F 69 °F (2004)
Cooling Degree Days 24    
Growing Degree Days 38 (Base 50)    
Moisture  
Dew Point 72 °F    
Average Humidity 66    
Maximum Humidity 94    
Minimum Humidity 29    
Precipitation  
Precipitation 0.00 in - - ()
Sea Level Pressure  
Sea Level Pressure 29.92 in    
Wind  
Wind Speed 4 mph (SSW)    
Max Wind Speed 9 mph    
Max Gust Speed -    
Visibility 10 miles    
Events      
Averages and records for this station are not official NWS values.
T = Trace of Precipitation, MM = Missing Value Source: NWS Daily Summary

Daily Weather History Graph

Daily Weather History Graph

Search for Another Location

Airport or City:

Trip Planner

Search our weather history database for the weather conditions in past years. The results will help you decide how hot, cold, wet, or windy it might be!

Date:

Astronomy

Aug. 06, 2013 Rise Set
Actual Time 6:32 AM CDT 8:04 PM CDT
Civil Twilight 6:06 AM CDT 8:30 PM CDT
Nautical Twilight 5:35 AM CDT 9:01 PM CDT
Astronomical Twilight 5:02 AM CDT 9:34 PM CDT
Moon 6:21 AM CDT (8/6) 7:45 PM CDT (8/6)
Length of Visible Light 14h 23m
Length of Day
13h 31m
Waning Crescent, 0% of the Moon is Illuminated
Aug 6
Waning Crescent
Aug 6
New
Aug 14
First Quarter
Aug 20
Full
Aug 28
Last Quarter

Hourly Weather History & Observations

Time (CDT) Temp. Heat Index Dew Point Humidity Pressure Visibility Wind Dir Wind Speed Gust Speed Precip Events Conditions
12:56 AM 81.0 °F 86.7 °F 75.0 °F 82% 29.95 in 10.0 mi SSW 3.5 mph - N/A   Clear
1:56 AM 80.1 °F 85.4 °F 75.9 °F 87% 29.93 in 10.0 mi SSW 4.6 mph - N/A   Clear
2:56 AM 79.0 °F - 75.9 °F 90% 29.91 in 10.0 mi Variable 3.5 mph - N/A   Clear
3:56 AM 79.0 °F - 75.9 °F 90% 29.91 in 10.0 mi SSW 3.5 mph - N/A   Clear
4:56 AM 78.1 °F - 75.9 °F 93% 29.91 in 10.0 mi Variable 3.5 mph - N/A   Clear
5:56 AM 78.1 °F - 75.0 °F 90% 29.94 in 10.0 mi Calm Calm - N/A   Partly Cloudy
6:11 AM 78.8 °F - 75.2 °F 89% 29.96 in 10.0 mi SW 3.5 mph - N/A   Mostly Cloudy
6:18 AM 78.8 °F - 75.2 °F 89% 29.95 in 10.0 mi Calm Calm - N/A   Scattered Clouds
6:56 AM 77.0 °F - 75.0 °F 94% 29.95 in 10.0 mi Variable 3.5 mph - N/A   Clear
7:56 AM 80.1 °F 85.1 °F 75.0 °F 85% 29.96 in 10.0 mi Variable 4.6 mph - N/A   Clear
8:56 AM 82.9 °F 89.4 °F 73.9 °F 74% 29.98 in 10.0 mi SW 9.2 mph - N/A   Partly Cloudy
9:56 AM 86.0 °F 93.0 °F 73.0 °F 65% 29.98 in 10.0 mi Variable 4.6 mph - N/A   Clear
10:56 AM 90.0 °F 96.4 °F 71.1 °F 54% 29.97 in 10.0 mi West 8.1 mph - N/A   Clear
11:56 AM 93.0 °F 100.1 °F 71.1 °F 49% 29.96 in 10.0 mi Variable 5.8 mph - N/A   Clear
12:56 PM 93.9 °F 100.3 °F 70.0 °F 46% 29.95 in 10.0 mi Variable 5.8 mph - N/A   Clear
1:56 PM 97.0 °F 100.4 °F 66.0 °F 36% 29.93 in 9.0 mi Variable 4.6 mph - N/A   Clear
2:56 PM 99.0 °F 102.3 °F 64.9 °F 33% 29.91 in 10.0 mi Variable 4.6 mph - N/A   Clear
3:56 PM 100.0 °F 101.8 °F 63.0 °F 29% 29.89 in 10.0 mi Variable 5.8 mph - N/A   Clear
4:56 PM 98.1 °F 101.8 °F 66.0 °F 35% 29.88 in 10.0 mi Variable 5.8 mph - N/A   Partly Cloudy
5:56 PM 99.0 °F 102.3 °F 64.9 °F 33% 29.86 in 10.0 mi South 4.6 mph - N/A   Clear
6:56 PM 96.1 °F 99.9 °F 66.9 °F 38% 29.85 in 10.0 mi South 3.5 mph - N/A   Clear
7:56 PM 91.0 °F 95.2 °F 68.0 °F 47% 29.86 in 10.0 mi Calm Calm - N/A   Clear
8:56 PM 86.0 °F 90.7 °F 70.0 °F 59% 29.88 in 10.0 mi Calm Calm - N/A   Clear
9:56 PM 86.0 °F 93.0 °F 73.0 °F 65% 29.90 in 10.0 mi South 3.5 mph - N/A   Clear
10:56 PM 84.9 °F 94.1 °F 75.9 °F 74% 29.91 in 10.0 mi Variable 4.6 mph - N/A   Clear
11:56 PM 82.9 °F 90.8 °F 75.9 °F 79% 29.93 in 10.0 mi SSW 6.9 mph - N/A   Clear